Lapse_Rate
6.9 6.7 6.6 6.7 6.6 6.6 6.8 6.8 6.5 6.3 6.0 5.8 5.6 5.5 5.5 5.4 5.3 5.2 5.0 4.8 4.5 4.1 3.9 3.8 3.7 3.7 3.7 3.7 3.5 3.5 3.5 3.7 4.0 4.5 4.8 5.3 5.4 5.2 5.2 5.3 5.1 5.4 5.9
6.7 6.6 6.7 7.0 7.1 7.1 6.9 6.9 6.8 6.7 6.5 6.2 6.0 5.7 5.7 5.8 5.7 5.5 5.3 5.0 4.6 4.4 4.4 4.5 4.3 4.0 4.0 3.6 3.8 3.8 3.9 4.0 4.5 5.4 5.6 5.8 5.6 5.7 5.3 5.0 5.1 5.2 5.4
6.5 6.7 6.9 7.1 7.0 7.0 6.9 6.9 6.9 6.9 6.7 6.3 6.1 6.0 6.1 6.2 6.1 5.8 5.6 5.5 5.2 5.1 4.8 4.5 4.2 4.1 4.0 4.1 4.6 4.8 4.7 4.6 4.7 5.2 5.7 5.6 5.6 5.3 5.1 4.9 5.2 5.5 5.5
7.0 6.6 7.0 7.0 6.9 7.1 7.1 7.1 7.0 6.8 6.7 6.6 6.5 6.5 6.5 6.4 6.2 5.9 5.7 5.5 5.3 5.2 5.0 4.9 5.1 5.1 5.0 4.9 4.9 4.9 4.7 4.5 4.5 4.7 5.2 5.1 5.2 5.0 4.9 5.2 5.7 5.6 5.9
6.9 6.6 6.5 6.5 6.6 6.7 6.9 6.8 7.1 7.1 7.3 7.1 6.8 6.7 6.6 6.5 6.4 6.2 6.2 6.0 5.9 5.8 5.7 5.8 5.6 5.6 5.4 5.0 4.8 4.8 4.6 4.5 4.5 4.5 4.6 4.7 4.8 5.0 5.3 5.6 5.7 5.8 5.9
6.5 6.9 6.6 6.4 6.0 6.2 6.2 6.3 6.8 7.1 7.1 6.9 6.9 7.2 7.1 6.9 6.9 6.7 6.5 6.3 6.3 6.1 5.9 5.8 5.3 5.2 5.3 5.3 4.9 4.8 4.6 4.3 4.2 4.4 4.6 4.7 5.1 5.4 5.5 5.8 5.9 5.9 6.2
6.7 6.9 6.5 6.3 6.2 6.2 6.2 6.3 6.6 6.9 6.9 7.0 6.9 7.1 7.2 7.2 7.1 6.8 6.6 6.6 6.6 6.3 6.1 6.1 5.6 5.1 5.0 5.2 5.1 4.6 4.3 3.9 4.0 4.3 4.7 5.2 5.4 5.1 5.4 5.9 6.2 6.3 6.3
6.9 7.1 6.6 6.4 6.0 6.1 6.8 6.8 6.6 6.7 6.7 6.7 6.8 7.0 7.0 6.9 7.0 6.8 6.6 6.6 6.6 6.8 6.6 6.4 5.6 5.0 4.9 4.5 4.3 4.2 4.0 4.0 4.2 4.4 4.6 4.8 5.1 5.5 5.6 5.2 5.5 6.0 6.0
6.8 6.7 6.9 6.7 6.5 6.8 6.8 6.9 6.6 6.5 6.6 6.6 7.0 7.1 7.1 7.0 6.5 6.6 6.6 6.6 6.9 6.8 6.3 5.8 5.4 4.9 4.5 4.0 4.4 4.1 4.1 3.8 4.0 4.4 4.4 4.6 4.4 4.4 4.2 4.7 4.6 4.9 5.3
6.6 6.7 7.0 7.2 7.2 7.4 7.4 7.5 6.7 6.6 6.8 6.9 6.9 6.9 6.9 6.2 5.9 6.1 7.2 7.1 6.9 6.5 6.2 5.7 5.5 5.1 4.9 4.2 4.3 4.1 3.8 3.9 4.0 4.2 4.4 4.5 4.6 4.5 4.1 4.1 4.0 3.8 3.6
6.8 6.8 6.9 7.0 7.2 7.0 6.9 7.2 7.1 6.9 6.8 6.8 7.2 7.2 7.1 6.6 6.5 7.0 7.2 7.3 6.9 6.4 6.2 6.1 5.2 4.3 4.3 4.5 4.4 3.9 3.8 4.1 4.3 4.7 4.8 5.0 4.9 4.8 4.1 4.0 3.9 3.7 3.6
5.6 5.8 6.2 6.5 6.8 6.9 7.0 7.0 7.0 7.0 7.3 7.1 7.0 7.0 7.0 6.9 6.7 6.9 7.0 7.0 6.6 6.4 6.3 5.9 5.0 4.8 4.7 4.3 3.8 4.0 4.0 3.8 4.4 4.8 4.8 5.0 4.8 4.8 4.2 4.2 4.2 4.0 3.7
4.6 4.5 5.1 6.0 6.5 6.3 6.2 5.8 6.5 6.5 6.9 7.2 7.4 7.3 6.8 6.9 6.7 6.7 6.6 6.8 6.5 6.3 6.0 5.6 5.2 4.6 4.6 3.8 3.7 3.9 4.3 4.1 4.6 5.1 5.1 5.3 5.1 4.9 4.5 4.5 4.4 4.1 4.0
5.0 5.3 5.4 6.1 6.1 5.9 5.9 6.0 5.8 6.1 6.6 6.6 7.0 6.9 7.0 6.9 6.5 6.1 6.2 6.0 6.1 6.4 5.8 4.8 4.6 4.3 4.1 3.3 3.3 4.1 4.2 4.5 5.2 5.3 5.4 5.6 5.7 5.2 4.9 4.6 4.5 4.3 4.3
4.7 5.4 5.8 5.8 6.8 6.1 5.8 5.7 5.5 5.5 5.8 6.0 6.1 6.3 6.4 6.6 6.9 6.4 5.7 5.5 5.7 5.1 4.5 4.3 4.1 3.7 3.5 3.6 3.6 4.1 4.4 4.9 5.6 5.6 5.5 5.7 5.8 5.5 5.3 5.0 4.7 4.5 4.3
4.4 4.8 5.2 6.0 6.1 6.1 5.9 5.1 5.3 5.3 5.6 5.8 5.8 5.6 5.7 5.7 5.8 5.8 5.5 4.9 5.1 5.4 5.5 4.6 3.9 3.8 3.8 3.5 3.9 4.7 5.0 5.2 5.7 5.8 5.8 5.7 5.7 5.4 5.2 5.1 4.8 4.4 4.2
4.5 5.2 5.2 5.5 5.8 6.2 5.7 5.3 5.5 5.0 5.2 5.2 5.1 5.5 5.4 5.6 5.8 5.6 5.3 5.4 5.6 5.6 5.0 4.3 3.8 3.7 3.1 3.3 4.3 5.1 5.2 5.5 6.0 6.2 6.1 5.9 5.8 5.4 5.1 4.9 4.7 4.4 4.3
5.1 5.0 5.1 5.2 5.6 5.4 5.0 5.4 5.2 4.8 4.7 4.9 4.8 4.8 5.0 5.3 5.8 5.9 5.3 4.9 4.6 4.3 3.3 3.4 3.3 3.4 3.7 3.9 4.7 5.3 5.8 6.0 6.4 6.5 6.2 5.9 5.7 5.3 5.0 4.8 4.8 4.5 4.4
5.6 5.6 5.5 5.3 5.3 5.2 5.1 5.0 4.5 4.8 5.1 5.0 4.9 4.9 5.1 5.1 5.3 5.1 5.3 4.5 3.3 3.4 3.7 3.7 3.7 4.1 3.9 4.3 5.2 5.9 6.0 6.3 6.7 6.5 6.0 5.8 5.4 5.1 4.9 4.8 4.9 4.7 4.9
6.5 6.0 5.7 5.6 5.6 5.4 5.1 4.8 4.7 4.4 4.4 4.5 4.8 4.9 4.8 4.6 4.8 4.8 5.0 5.0 3.5 4.1 4.7 4.7 4.7 4.0 4.7 4.9 5.6 6.0 6.5 6.6 6.6 6.2 6.0 5.6 5.3 4.9 4.9 4.9 4.8 4.8 5.1
7.3 6.9 6.7 6.7 6.4 5.8 5.7 5.5 5.3 5.3 4.9 4.6 4.6 5.4 5.0 4.9 4.7 5.2 5.2 4.3 4.0 4.5 4.9 5.3 4.7 5.1 5.4 5.8 6.0 6.4 6.6 6.4 6.2 6.2 6.0 5.6 5.2 5.1 5.0 4.8 4.7 4.9 5.2
7.5 7.4 7.3 7.3 7.4 7.0 6.6 6.5 6.3 6.1 5.9 5.7 5.5 5.6 5.7 5.5 5.4 5.0 5.1 5.0 5.4 5.3 5.5 4.8 5.1 5.5 5.8 6.2 6.6 6.6 6.4 6.1 6.1 6.1 6.0 5.5 5.2 5.2 5.0 4.7 4.7 5.0 5.2
6.9 6.9 6.8 6.7 6.6 6.5 6.6 6.8 6.8 6.7 6.5 6.4 5.9 5.5 5.9 5.9 5.4 5.0 4.7 5.2 5.5 5.5 4.8 5.2 5.5 5.8 6.3 6.6 6.5 6.5 6.3 6.1 6.1 6.1 6.0 5.5 5.3 5.2 4.9 4.7 4.6 4.9 5.0
6.0 6.1 6.3 6.4 6.5 6.7 6.7 6.8 6.8 6.8 6.8 6.3 6.0 5.7 5.3 4.8 4.5 4.4 4.7 5.3 5.4 5.0 5.1 5.1 5.7 6.4 6.6 6.5 6.5 6.5 6.3 6.2 6.1 6.1 5.7 5.4 5.3 5.1 4.8 4.7 4.7 4.9 5.0
5.5 5.6 5.8 6.0 6.0 6.1 6.2 6.2 6.4 6.1 6.0 5.7 5.3 4.7 4.1 3.9 4.4 4.7 5.0 5.4 5.1 5.3 5.5 5.8 6.3 6.5 6.5 6.5 6.3 6.2 6.1 6.1 6.0 5.7 5.5 5.2 5.1 5.0 4.8 4.8 4.8 5.0 5.1
5.1 5.2 5.3 5.5 5.5 5.4 5.4 5.2 5.2 5.2 5.0 4.8 4.3 4.1 3.8 3.9 4.4 4.9 5.0 5.2 5.7 5.7 5.9 6.2 6.3 6.3 6.4 6.3 6.1 6.0 5.9 5.8 5.6 5.4 5.2 5.0 4.9 5.1 5.0 4.8 4.9 5.1 5.2
Wind_Speed
12 13 13 14 14 13 13 12 13 12 14 15 15 15 15 13 12 11 9 9 10 8 5 6 6 6 5 4 4 3 4 4 4 3 3 1 4 6 14 15 17 18 17
13 14 16 12 12 13 15 15 15 14 14 15 15 16 15 15 14 14 12 10 11 11 10 9 9 6 7 6 5 6 4 4 3 6 3 2 5 6 11 11 13 16 17
10 12 10 12 13 17 16 14 14 15 15 15 16 17 17 16 15 14 13 12 12 12 11 11 9 8 7 5 4 4 4 4 4 5 6 3 5 6 9 8 8 11 15
9 13 15 17 19 18 15 14 16 16 16 16 17 17 18 17 16 14 13 12 10 9 8 8 8 9 8 7 6 5 3 3 4 6 7 8 6 7 7 10 11 9 10
11 13 17 17 15 14 15 15 15 16 16 16 16 14 15 16 13 16 14 12 11 9 8 9 8 9 14 11 5 5 5 4 4 5 8 8 7 8 10 11 12 13 12
12 16 15 10 11 16 15 15 15 15 15 15 16 17 17 13 26 28 19 13 12 11 10 8 8 9 12 14 14 15 13 6 6 3 7 10 11 10 9 11 13 13 13
15 14 11 9 12 14 13 13 14 16 14 16 16 17 17 16 30 30 28 13 14 12 11 10 9 7 9 8 12 13 13 15 14 9 10 10 13 11 12 14 14 14 14
16 13 6 9 13 12 12 14 15 14 16 16 16 16 15 13 31 31 29 13 12 13 12 12 10 9 10 9 8 7 7 8 10 8 10 12 12 11 13 13 14 17 15
12 9 7 6 8 8 12 13 12 13 12 14 14 16 16 13 29 30 25 13 11 12 10 10 10 9 14 17 9 6 6 9 15 18 21 25 29 28 26 12 11 11 14
13 8 6 4 4 8 10 9 8 9 12 10 12 14 17 17 32 34 23 10 12 9 10 10 15 12 16 16 6 5 5 8 5 4 9 11 15 19 25 14 9 10 12
9 9 3 3 3 4 4 5 7 9 8 9 11 10 12 16 21 33 32 13 11 11 10 9 7 19 17 14 10 5 6 5 6 2 4 6 8 9 9 13 14 10 12
7 5 6 3 3 2 2 3 5 7 10 10 10 8 7 10 19 31 33 23 21 11 11 8 8 18 15 11 8 6 11 8 2 2 3 6 7 7 9 9 18 20 22
14 12 7 5 6 7 7 6 5 6 7 8 8 9 8 7 9 27 30 26 23 9 8 13 19 17 14 6 3 5 1 1 0 2 5 6 7 8 12 13 18 24 25
19 15 8 7 6 7 7 8 8 9 8 7 8 9 8 9 10 9 10 13 18 12 16 10 11 10 9 7 4 4 2 2 4 5 6 7 8 8 9 9 11 12 13
18 17 11 8 8 7 8 8 10 11 14 12 12 11 12 12 15 21 18 11 10 12 10 6 4 4 5 5 4 3 3 3 4 5 5 7 7 8 9 9 10 12 13
17 13 11 8 7 8 8 7 19 18 20 23 21 17 11 17 30 35 33 29 26 29 7 5 5 6 6 5 4 3 2 4 4 5 5 5 7 8 10 11 11 11 14
17 16 12 10 8 8 8 9 8 12 20 22 23 23 22 19 30 32 33 32 31 24 5 8 6 6 5 5 4 3 1 3 5 5 6 5 6 8 10 11 12 12 14
17 22 13 13 9 8 9 8 7 8 10 9 20 17 22 23 30 32 31 26 14 8 5 7 7 6 5 5 3 2 2 3 4 6 5 4 7 8 9 11 12 14 15
16 14 13 13 9 10 8 7 8 9 8 8 8 15 17 24 30 32 34 12 10 7 6 5 6 6 5 4 3 2 3 3 4 6 4 3 7 8 10 11 13 19 20
15 23 20 13 7 7 7 8 9 10 10 9 10 11 11 15 16 15 10 11 9 7 6 6 5 5 4 4 3 2 3 3 5 6 4 5 6 8 10 12 12 15 16
11 13 17 10 7 8 8 9 8 9 9 10 10 12 25 15 12 10 9 9 8 8 7 6 5 4 3 3 3 3 3 4 5 5 4 6 7 8 10 10 12 15 15
12 11 8 6 6 7 7 7 8 8 9 10 9 12 26 9 9 8 8 7 6 6 5 6 4 4 4 4 4 4 4 5 4 4 5 7 7 9 10 11 13 14 15
3 1 2 3 5 7 6 7 7 8 8 9 11 8 9 8 8 7 7 7 6 5 4 3 3 3 2 3 6 4 4 5 5 4 6 8 8 9 10 11 13 15 15
3 3 3 3 4 4 5 6 6 9 9 10 8 8 8 8 8 8 7 6 5 4 3 3 3 3 3 4 8 10 11 12 12 8 9 8 9 11 10 11 13 17 16
4 5 5 5 5 6 7 7 8 8 7 8 8 8 9 8 8 7 6 5 4 4 4 3 2 4 5 5 7 11 15 16 14 16 11 11 10 12 11 9 13 15 18
6 6 6 6 6 6 7 7 7 8 8 7 8 8 8 8 7 6 5 4 4 4 4 2 3 5 6 7 12 14 15 15 14 18 14 9 6 9 8 10 16 13 16
Wind_Direction
198 201 200 205 198 189 187 190 188 175 176 177 181 180 180 180 178 180 180 172 173 168 168 171 171 157 158 151 158 168 185 189 242 262 230 354 310 304 303 299 301 302 301
209 202 209 203 192 198 197 191 183 185 181 180 180 181 182 184 180 183 179 181 180 176 176 174 180 176 167 162 166 182 193 206 229 281 257 232 279 295 289 292 300 297 292
204 201 200 203 198 209 204 191 184 182 184 181 180 185 184 184 181 184 184 181 185 181 177 182 178 170 169 164 168 180 194 228 237 267 287 284 287 295 299 298 299 295 292
203 202 209 204 205 209 205 190 187 186 183 185 187 187 184 180 181 179 179 177 182 181 174 174 170 179 166 167 181 172 190 222 251 272 288 292 298 304 293 316 315 305 304
224 226 224 217 213 203 203 192 187 188 194 186 179 185 182 182 180 178 176 173 176 170 168 176 179 171 181 178 165 170 189 213 230 260 284 291 306 321 320 317 308 311 309
245 237 237 232 213 202 199 193 184 186 188 183 186 181 184 189 186 181 170 169 172 174 175 175 182 188 194 192 200 199 202 204 221 239 277 295 303 308 313 310 306 309 315
271 257 230 201 199 209 187 186 185 193 184 189 186 184 189 188 184 183 177 169 172 176 172 172 179 190 190 200 215 225 238 254 261 269 277 284 296 302 303 299 298 297 297
312 277 246 211 213 197 186 189 185 184 189 189 190 188 189 188 183 183 177 171 172 170 173 169 178 178 185 188 194 212 227 243 255 268 271 275 274 279 288 299 307 301 293
331 315 292 240 223 201 201 199 188 184 190 191 188 178 180 179 186 185 174 166 169 167 169 169 178 175 191 198 194 204 229 250 258 276 284 291 296 299 304 307 298 303 296
319 295 265 241 214 211 206 196 189 196 193 184 183 184 183 172 186 187 172 162 166 165 168 180 185 183 193 205 191 183 223 254 262 278 280 289 301 298 296 288 284 277 285
321 300 263 228 231 193 182 184 178 178 175 179 173 174 179 174 187 189 179 170 171 169 170 176 181 196 193 202 212 192 224 244 267 49 294 296 296 292 284 276 268 268 276
310 287 273 184 123 112 153 123 168 183 175 169 166 162 177 184 192 190 186 181 180 168 170 167 170 188 190 198 210 274 281 298 30 359 292 288 283 283 283 281 278 273 270
300 290 254 237 167 163 161 161 163 184 189 176 176 178 176 183 196 195 191 180 185 164 159 165 172 180 185 188 198 232 288 97 238 260 263 272 276 284 288 289 283 279 277
306 291 259 226 200 185 178 172 181 189 193 189 190 187 176 175 179 196 192 182 186 165 167 167 164 133 140 162 150 158 195 219 239 249 267 277 286 290 287 288 287 289 288
298 290 265 239 210 200 204 200 206 212 197 192 200 189 176 185 187 177 173 177 170 158 125 120 128 140 161 164 163 181 208 225 247 250 266 280 288 292 291 296 291 291 285
287 287 266 237 219 212 205 212 225 226 223 218 209 199 203 210 181 179 178 179 163 154 147 148 162 164 176 175 180 192 204 242 250 265 269 272 288 295 298 302 293 289 294
281 283 282 245 226 215 207 207 206 221 220 223 217 211 203 195 188 186 179 174 170 160 165 158 166 167 163 171 184 189 174 246 276 272 269 285 289 289 299 299 297 301 294
277 278 272 268 226 216 213 199 205 200 201 197 219 207 202 195 185 180 176 171 171 150 139 159 164 155 163 176 192 175 232 274 272 275 270 281 287 285 295 297 299 299 302
283 278 276 278 228 215 205 185 191 196 196 188 177 193 183 191 182 176 173 163 154 153 154 175 157 154 160 162 162 208 210 238 269 273 259 273 280 286 289 294 299 297 303
274 266 259 258 213 200 194 189 185 192 187 186 179 175 172 178 178 177 148 145 142 145 154 163 163 164 152 150 158 205 228 235 265 257 259 272 278 278 287 298 293 305 303
270 271 256 251 194 195 190 192 190 188 187 181 176 174 176 181 164 143 138 148 144 155 159 155 161 145 153 167 166 202 223 252 256 257 269 282 281 288 288 290 299 304 304
272 264 238 192 180 184 187 187 186 183 175 166 158 174 166 121 136 139 139 136 126 138 142 148 146 167 176 179 187 199 219 245 256 249 270 282 283 285 290 292 308 309 308
299 13 127 143 162 171 173 171 165 163 150 149 157 143 127 125 130 128 130 126 125 122 132 121 152 179 187 208 212 207 219 246 251 233 278 282 286 288 289 305 312 313 309
8 46 97 121 131 132 129 136 136 127 136 146 119 118 121 118 120 122 124 121 120 125 124 156 185 188 212 226 232 234 238 250 251 259 257 270 277 282 300 306 312 308 307
45 61 69 85 99 108 113 111 114 125 116 109 115 111 108 112 116 117 118 126 129 135 157 172 195 221 242 262 269 266 264 268 264 261 262 262 279 289 293 304 306 308 312
49 60 66 72 78 88 102 109 110 111 112 111 111 111 115 114 113 117 126 136 144 161 171 186 222 246 265 272 273 276 278 283 285 282 283 292 283 293 300 307 303 310 316